DW4879 Weather Reports


time (UTC)temp
C
wind
direction
speed
KPH
gust
KPH
rain 1hr
cm
rain 24hr
cm
rain mn
cm
humidity
%
barometer
mb
20220629030503 23 45 14.5 20.9 0.00 0.00 0.00 39 1022.2
20220629030008 23 45 14.5 22.5 0.00 0.00 0.00 38 1022.2
20220629025506 23 45 16.1 16.1 0.00 0.00 0.00 37 1022.2
20220629025005 24 45 16.1 30.6 0.00 0.00 0.00 37 1022.2
20220629024510 24 45 16.1 20.9 0.00 0.00 0.00 37 1021.9
20220629024008 24 45 19.3 32.2 0.00 0.00 0.00 36 1021.9
20220629023505 24 45 17.7 29.0 0.00 0.00 0.00 36 1021.9
20220629023004 25 45 19.3 27.4 0.00 0.00 0.00 35 1021.9
20220629022503 25 45 19.3 29.0 0.00 0.00 0.00 34 1021.5
20220629022007 25 45 17.7 30.6 0.00 0.00 0.00 32 1021.5
20220629021506 25 45 17.7 19.3 0.00 0.00 0.00 32 1021.9
20220629021009 25 45 0.0 17.7 0.00 0.00 0.00 32 1021.9
20220629020507 25 45 0.0 22.5 0.00 0.00 0.00 32 1021.9
20220629020008 26 45 16.1 27.4 0.00 0.00 0.00 32 1021.9
20220629015507 26 45 16.1 17.7 0.00 0.00 0.00 31 1021.5
20220629015006 26 45 17.7 24.1 0.00 0.00 0.00 31 1021.5
20220629014504 26 45 19.3 20.9 0.00 0.00 0.00 33 1021.2
20220629014009 27 45 17.7 24.1 0.00 0.00 0.00 31 1021.2
20220629013507 27 45 22.5 25.7 0.00 0.00 0.00 31 1021.2
20220629013005 27 45 20.9 30.6 0.00 0.00 0.00 30 1021.2
20220629012504 27 45 17.7 29.0 0.00 0.00 0.00 29 1020.9
20220629012004 28 45 16.1 20.9 0.00 0.00 0.00 29 1020.9
20220629011508 28 45 17.7 12.9 0.00 0.00 0.00 24 1020.5
20220629011007 28 45 19.3 27.4 0.00 0.00 0.00 23 1020.5
20220629010505 28 45 19.3 25.7 0.00 0.00 0.00 23 1020.5
20220629010004 28 45 20.9 25.7 0.00 0.00 0.00 22 1020.5
20220629005503 28 45 19.3 29.0 0.00 0.00 0.00 23 1020.5
20220629005007 28 45 16.1 20.9 0.00 0.00 0.00 22 1020.5
20220629004506 28 45 16.1 20.9 0.00 0.00 0.00 21 1020.2
20220629004005 28 45 16.1 24.1 0.00 0.00 0.00 22 1020.2
20220629003503 28 45 19.3 19.3 0.00 0.00 0.00 22 1020.2
20220629003008 29 45 16.1 22.5 0.00 0.00 0.00 22 1020.2
20220629002507 28 45 16.1 22.5 0.00 0.00 0.00 22 1020.5
20220629002006 28 45 14.5 16.1 0.00 0.00 0.00 24 1020.5
20220629001504 28 45 14.5 16.1 0.00 0.00 0.00 24 1020.5
20220629001007 28 45 0.0 24.1 0.00 0.00 0.00 25 1020.5
20220629000506 28 45 0.0 14.5 0.00 0.00 0.00 25 1020.2
20220629000007 28 45 12.9 25.7 0.00 0.00 0.00 24 1020.2
20220628235505 29 45 12.9 11.3 0.00 0.00 0.00 24 1020.2
20220628235009 30 45 14.5 17.7 0.00 0.00 0.00 24 1020.2
20220628234508 29 45 16.1 12.9 0.00 0.00 0.00 24 1020.2
20220628234007 29 45 16.1 24.1 0.00 0.00 0.00 25 1020.2
20220628233504 29 315 11.3 22.5 0.00 0.00 0.00 25 1020.5
20220628233007 30 45 9.7 9.7 0.00 0.00 0.00 26 1020.5
20220628232505 29 45 14.5 24.1 0.00 0.00 0.00 26 1020.5
20220628232005 30 45 12.9 12.9 0.00 0.00 0.00 24 1020.5
20220628231509 30 45 0.0 12.9 0.00 0.00 0.00 25 1020.9
20220628231056 29 315 0.0 1.6 0.00 0.00 0.00 27 1020.9
20220628215007 30 135 4.8 8.0 0.00 0.00 0.00 25 1021.2
20220628214506 29 225 8.0 14.5 0.00 0.00 0.00 27 1021.5
20220628214004 29 225 4.8 9.7 0.00 0.00 0.00 29 1021.5
20220628213509 29 315 3.2 6.4 0.00 0.00 0.00 29 1021.9
20220628213006 30 135 1.6 3.2 0.00 0.00 0.00 28 1021.9
20220628212504 29 135 4.8 4.8 0.00 0.00 0.00 24 1022.2
20220628212009 30 135 6.4 8.0 0.00 0.00 0.00 27 1022.2
20220628211507 30 135 8.0 6.4 0.00 0.00 0.00 26 1021.9
20220628211006 30 225 8.0 14.5 0.00 0.00 0.00 26 1021.9
20220628210503 30 225 9.7 11.3 0.00 0.00 0.00 27 1021.5
20220628210008 31 135 11.3 14.5 0.00 0.00 0.00 26 1021.5
20220628205507 31 135 6.4 19.3 0.00 0.00 0.00 24 1021.9
20220628205005 32 225 9.7 8.0 0.00 0.00 0.00 25 1021.9
20220628204509 32 225 11.3 14.5 0.00 0.00 0.00 27 1021.9
20220628204006 32 225 12.9 20.9 0.00 0.00 0.00 24 1021.9
20220628203504 31 225 6.4 19.3 0.00 0.00 0.00 27 1021.9
20220628203008 31 135 9.7 4.8 0.00 0.00 0.00 26 1021.9
20220628202507 31 135 8.0 16.1 0.00 0.00 0.00 25 1021.9
20220628202006 31 225 6.4 12.9 0.00 0.00 0.00 27 1021.9
20220628201504 31 135 4.8 9.7 0.00 0.00 0.00 25 1022.2
20220628201008 31 135 0.0 12.9 0.00 0.00 0.00 24 1022.2
20220628200506 31 135 0.0 11.3 0.00 0.00 0.00 25 1022.6
20220628200004 31 135 6.4 12.9 0.00 0.00 0.00 25 1022.6
20220628195509 31 225 8.0 11.3 0.00 0.00 0.00 28 1022.9
20220628195006 30 225 8.0 16.1 0.00 0.00 0.00 29 1022.9
20220628194504 30 45 4.8 9.7 0.00 0.00 0.00 30 1022.9
20220628194009 30 135 8.0 11.3 0.00 0.00 0.00 27 1022.9
20220628193507 30 225 11.3 14.5 0.00 0.00 0.00 29 1023.2
20220628193006 30 135 6.4 16.1 0.00 0.00 0.00 29 1023.2
20220628192504 30 225 1.6 3.2 0.00 0.00 0.00 31 1023.2
20220628192009 30 225 4.8 8.0 0.00 0.00 0.00 33 1023.2
20220628191507 29 315 6.4 8.0 0.00 0.00 0.00 33 1023.2
20220628191006 29 45 6.4 8.0 0.00 0.00 0.00 31 1023.2
20220628190505 29 135 8.0 11.3 0.00 0.00 0.00 31 1023.6
20220628190008 29 135 8.0 12.9 0.00 0.00 0.00 31 1023.6
20220628185506 29 135 9.7 12.9 0.00 0.00 0.00 32 1023.9
20220628185005 29 135 11.3 14.5 0.00 0.00 0.00 33 1023.9
20220628184509 30 135 6.4 14.5 0.00 0.00 0.00 32 1023.9
20220628184007 30 315 3.2 6.4 0.00 0.00 0.00 32 1023.9
20220628183505 30 315 4.8 6.4 0.00 0.00 0.00 32 1024.3
20220628183007 30 135 4.8 8.0 0.00 0.00 0.00 33 1024.3
20220628182505 29 315 3.2 9.7 0.00 0.00 0.00 35 1024.3
20220628182009 29 225 3.2 0.0 0.00 0.00 0.00 34 1024.3
20220628181506 28 225 4.8 6.4 0.00 0.00 0.00 36 1024.6
20220628181005 28 225 0.0 9.7 0.00 0.00 0.00 36 1024.6
20220628180509 28 135 0.0 12.9 0.00 0.00 0.00 38 1024.6
20220628180003 28 135 9.7 9.7 0.00 0.00 0.00 35 1024.6
20220628175508 28 135 4.8 11.3 0.00 0.00 0.00 38 1024.6
20220628175006 28 135 3.2 1.6 0.00 0.00 0.00 38 1024.6
20220628174505 27 135 9.7 3.2 0.00 0.00 0.00 40 1024.9
20220628174003 27 135 8.0 16.1 0.00 0.00 0.00 40 1024.9
20220628173508 27 225 4.8 6.4 0.00 0.00 0.00 39 1024.9
20220628173006 27 225 4.8 9.7 0.00 0.00 0.00 40 1024.9
20220628172505 27 135 9.7 14.5 0.00 0.00 0.00 41 1025.3
20220628172003 27 135 4.8 14.5 0.00 0.00 0.00 40 1025.3
20220628171508 26 135 6.4 4.8 0.00 0.00 0.00 41 1025.3
20220628171007 26 135 9.7 14.5 0.00 0.00 0.00 41 1025.3
20220628170506 26 135 9.7 14.5 0.00 0.00 0.00 40 1025.3
20220628170005 26 135 9.7 12.9 0.00 0.00 0.00 40 1025.3
20220628165509 26 135 9.7 12.9 0.00 0.00 0.00 38 1025.3
20220628165006 26 135 8.0 12.9 0.00 0.00 0.00 40 1025.3
20220628164504 26 135 8.0 16.1 0.00 0.00 0.00 40 1025.6
20220628164009 26 135 9.7 14.5 0.00 0.00 0.00 39 1025.6
20220628163507 26 135 9.7 14.5 0.00 0.00 0.00 40 1025.6
20220628163004 26 135 9.7 12.9 0.00 0.00 0.00 41 1025.6
20220628162508 26 225 6.4 9.7 0.00 0.00 0.00 39 1025.6
20220628162006 26 225 9.7 11.3 0.00 0.00 0.00 41 1025.6
20220628161508 26 225 6.4 12.9 0.00 0.00 0.00 43 1025.9
20220628161007 26 45 0.0 9.7 0.00 0.00 0.00 41 1025.9
20220628160506 25 135 0.0 8.0 0.00 0.00 0.00 41 1025.9
20220628160008 25 225 4.8 9.7 0.00 0.00 0.00 43 1025.9
20220628155507 25 135 6.4 9.7 0.00 0.00 0.00 45 1025.9
20220628155004 25 135 4.8 11.3 0.00 0.00 0.00 43 1025.9
20220628154509 24 135 9.7 12.9 0.00 0.00 0.00 47 1025.9
20220628154008 24 135 8.0 16.1 0.00 0.00 0.00 49 1025.9
20220628153507 23 135 8.0 9.7 0.00 0.00 0.00 49 1026.3
20220628153005 23 135 6.4 12.9 0.00 0.00 0.00 48 1026.3
20220628152510 23 135 8.0 11.3 0.00 0.00 0.00 51 1026.6
20220628152008 23 135 9.7 12.9 0.00 0.00 0.00 53 1026.6
20220628151507 23 135 9.7 12.9 0.00 0.00 0.00 54 1026.6
20220628151005 23 45 9.7 14.5 0.00 0.00 0.00 55 1026.6
20220628150504 22 135 9.7 16.1 0.00 0.00 0.00 55 1026.3
20220628150007 22 135 9.7 16.1 0.00 0.00 0.00 55 1026.3
20220628145506 22 135 9.7 11.3 0.00 0.00 0.00 55 1026.6
20220628145005 22 135 8.0 11.3 0.00 0.00 0.00 56 1026.6
20220628144503 22 135 9.7 9.7 0.00 0.00 0.00 58 1026.6
20220628144007 22 135 9.7 11.3 0.00 0.00 0.00 58 1026.6
20220628143507 22 135 4.8 11.3 0.00 0.00 0.00 59 1026.6
20220628143005 21 135 4.8 4.8 0.00 0.00 0.00 61 1026.6
20220628142504 21 135 8.0 8.0 0.00 0.00 0.00 65 1026.6
20220628142009 21 135 6.4 12.9 0.00 0.00 0.00 65 1026.6
20220628141507 21 45 6.4 6.4 0.00 0.00 0.00 66 1026.6
20220628141007 21 45 0.0 12.9 0.00 0.00 0.00 67 1026.6
20220628140506 20 45 0.0 9.7 0.00 0.00 0.00 68 1026.6
20220628140005 20 135 4.8 8.0 0.00 0.00 0.00 64 1026.6
20220628135504 20 135 3.2 8.0 0.00 0.00 0.00 68 1026.6
20220628135008 20 135 4.8 4.8 0.00 0.00 0.00 70 1026.6
20220628134506 19 135 6.4 6.4 0.00 0.00 0.00 70 1026.6
20220628134005 19 135 6.4 8.0 0.00 0.00 0.00 71 1026.6
20220628133503 18 135 8.0 11.3 0.00 0.00 0.00 72 1026.6
20220628133002 18 135 8.0 11.3 0.00 0.00 0.00 74 1026.6
20220628132507 18 135 8.0 14.5 0.00 0.00 0.00 76 1026.6
20220628132006 18 135 9.7 8.0 0.00 0.00 0.00 77 1026.6
20220628131504 17 135 11.3 16.1 0.00 0.00 0.00 79 1026.6
20220628131003 17 135 9.7 16.1 0.00 0.00 0.00 79 1026.6
20220628130508 17 135 9.7 11.3 0.00 0.00 0.00 81 1026.6
20220628130005 17 135 9.7 12.9 0.00 0.00 0.00 80 1026.6
20220628125504 17 135 9.7 9.7 0.00 0.00 0.00 83 1026.6
20220628125008 17 135 8.0 11.3 0.00 0.00 0.00 84 1026.6
20220628124506 16 135 8.0 9.7 0.00 0.00 0.00 85 1026.6
20220628124003 16 135 6.4 8.0 0.00 0.00 0.00 86 1026.6
20220628123508 16 135 6.4 8.0 0.00 0.00 0.00 89 1026.6
20220628123007 16 135 8.0 9.7 0.00 0.00 0.00 89 1026.6
20220628122505 15 135 8.0 11.3 0.00 0.00 0.00 90 1027.0
20220628122005 15 135 6.4 9.7 0.00 0.00 0.00 90 1027.0
20220628121504 15 135 4.8 8.0 0.00 0.00 0.00 90 1026.6
20220628121008 15 135 0.0 6.4 0.00 0.00 0.00 90 1026.6
20220628120508 15 135 0.0 8.0 0.00 0.00 0.00 90 1026.6
20220628120006 15 135 6.4 8.0 0.00 0.00 0.00 90 1026.6
20220628115504 15 135 4.8 8.0 0.00 0.00 0.00 90 1026.6
20220628115009 15 135 6.4 4.8 0.00 0.00 0.00 90 1026.6
20220628114507 15 135 6.4 9.7 0.00 0.00 0.00 90 1026.3
20220628114005 15 135 6.4 8.0 0.00 0.00 0.00 90 1026.3
20220628113504 15 135 4.8 9.7 0.00 0.00 0.00 90 1026.6
20220628113009 16 135 3.2 6.4 0.00 0.00 0.00 90 1026.6
20220628112506 15 135 1.6 0.0 0.00 0.00 0.00 90 1026.6
20220628112005 16 135 4.8 4.8 0.00 0.00 0.00 90 1026.6
20220628111509 16 135 1.6 4.8 0.00 0.00 0.00 90 1026.6
20220628111007 16 135 3.2 3.2 0.00 0.00 0.00 90 1026.6
20220628110505 16 135 4.8 4.8 0.00 0.00 0.00 90 1026.6
20220628110004 16 135 3.2 8.0 0.00 0.00 0.00 90 1026.6
20220628105509 16 135 4.8 4.8 0.00 0.00 0.00 90 1026.6
20220628105008 16 135 4.8 6.4 0.00 0.00 0.00 90 1026.6
20220628104507 16 135 4.8 6.4 0.00 0.00 0.00 90 1026.6
20220628104006 16 135 4.8 8.0 0.00 0.00 0.00 90 1026.6
20220628103505 16 135 3.2 6.4 0.00 0.00 0.00 90 1026.3
20220628103004 16 135 3.2 6.4 0.00 0.00 0.00 90 1026.3
20220628102508 16 135 3.2 4.8 0.00 0.00 0.00 90 1026.3
20220628102007 16 135 4.8 3.2 0.00 0.00 0.00 89 1026.3
20220628101505 16 135 8.0 8.0 0.00 0.00 0.00 89 1026.3
20220628101003 16 135 0.0 11.3 0.00 0.00 0.00 89 1026.3
20220628100508 16 135 0.0 11.3 0.00 0.00 0.00 89 1026.6
20220628100007 17 135 6.4 6.4 0.00 0.00 0.00 89 1026.6
20220628095506 17 135 4.8 9.7 0.00 0.00 0.00 89 1026.6
20220628095004 17 135 4.8 6.4 0.00 0.00 0.00 88 1026.6
20220628094508 17 135 6.4 9.7 0.00 0.00 0.00 88 1026.3
20220628094006 17 135 8.0 9.7 0.00 0.00 0.00 88 1026.3
20220628093504 17 135 8.0 9.7 0.00 0.00 0.00 87 1026.3
20220628093008 17 135 9.7 11.3 0.00 0.00 0.00 88 1026.3
20220628092506 17 135 8.0 12.9 0.00 0.00 0.00 87 1026.3
20220628092004 17 135 8.0 9.7 0.00 0.00 0.00 88 1026.3
20220628091508 17 135 9.7 9.7 0.00 0.00 0.00 87 1026.6
20220628091005 17 135 9.7 11.3 0.00 0.00 0.00 88 1026.6
20220628090504 17 135 8.0 12.9 0.00 0.00 0.00 88 1026.6
20220628090008 17 135 4.8 6.4 0.00 0.00 0.00 88 1026.6
20220628085505 17 135 3.2 6.4 0.00 0.00 0.00 88 1026.6
20220628085008 17 135 3.2 6.4 0.00 0.00 0.00 88 1026.6
20220628084506 17 135 1.6 4.8 0.00 0.00 0.00 88 1026.6
20220628084005 17 135 4.8 6.4 0.00 0.00 0.00 88 1026.6
20220628083503 17 135 3.2 8.0 0.00 0.00 0.00 88 1026.3
20220628083007 18 135 3.2 1.6 0.00 0.00 0.00 87 1026.3
20220628082506 18 135 4.8 8.0 0.00 0.00 0.00 87 1026.3
20220628082004 18 135 4.8 8.0 0.00 0.00 0.00 86 1026.3
20220628081503 18 135 4.8 8.0 0.00 0.00 0.00 86 1026.3
20220628081008 18 135 0.0 11.3 0.00 0.00 0.00 85 1026.3
20220628080506 18 135 0.0 11.3 0.00 0.00 0.00 85 1026.3
20220628080006 18 135 9.7 11.3 0.00 0.00 0.00 84 1026.3
20220628075504 18 135 9.7 14.5 0.00 0.00 0.00 84 1026.3
20220628075007 18 135 9.7 11.3 0.00 0.00 0.00 83 1026.3
20220628074504 18 135 6.4 12.9 0.00 0.00 0.00 83 1026.3
20220628074003 18 135 8.0 9.7 0.00 0.00 0.00 82 1026.3
20220628073507 18 135 11.3 11.3 0.00 0.00 0.00 82 1026.3
20220628073006 18 135 11.3 16.1 0.00 0.00 0.00 81 1026.3
20220628072505 18 135 14.5 16.1 0.00 0.00 0.00 81 1025.9
20220628072003 19 135 14.5 22.5 0.00 0.00 0.00 80 1025.9
20220628071507 18 135 14.5 16.1 0.00 0.00 0.00 81 1025.9
20220628071006 19 45 16.1 20.9 0.00 0.00 0.00 80 1025.9
20220628070505 18 45 12.9 22.5 0.00 0.00 0.00 81 1025.9
20220628070003 19 135 11.3 16.1 0.00 0.00 0.00 81 1025.9
20220628065507 18 135 11.3 16.1 0.00 0.00 0.00 82 1026.3
20220628065005 19 135 9.7 12.9 0.00 0.00 0.00 81 1026.3
20220628064506 18 135 9.7 11.3 0.00 0.00 0.00 81 1026.3
20220628064004 19 135 6.4 16.1 0.00 0.00 0.00 80 1026.3
20220628063508 19 135 6.4 8.0 0.00 0.00 0.00 80 1025.9
20220628063005 19 135 6.4 12.9 0.00 0.00 0.00 79 1025.9
20220628062509 19 135 8.0 9.7 0.00 0.00 0.00 79 1025.9
20220628062006 19 135 6.4 12.9 0.00 0.00 0.00 78 1025.9
20220628061504 19 135 8.0 11.3 0.00 0.00 0.00 77 1025.9
20220628061002 20 135 0.0 11.3 0.00 0.00 0.00 76 1025.9
20220628060507 20 135 0.0 11.3 0.00 0.00 0.00 76 1025.6
20220628060007 20 135 11.3 16.1 0.00 0.00 0.00 75 1025.6
20220628055503 20 135 9.7 14.5 0.00 0.00 0.00 75 1025.6
20220628055007 20 135 8.0 11.3 0.00 0.00 0.00 73 1025.6
20220628054506 20 135 9.7 14.5 0.00 0.00 0.00 73 1025.3
20220628054005 20 135 11.3 16.1 0.00 0.00 0.00 72 1025.3
20220628053504 20 135 12.9 20.9 0.00 0.00 0.00 73 1025.3
20220628053003 20 135 14.5 19.3 0.00 0.00 0.00 73 1025.3
20220628052508 20 135 12.9 16.1 0.00 0.03 0.00 73 1025.3
20220628052007 20 135 11.3 11.3 0.00 0.03 0.00 73 1025.3
20220628051506 20 135 9.7 11.3 0.00 0.03 0.00 74 1025.3
20220628051009 21 135 9.7 11.3 0.00 0.05 0.00 73 1025.3
20220628050508 21 135 8.0 9.7 0.00 0.05 0.00 71 1025.3
20220628050005 21 135 8.0 12.9 0.00 0.08 0.00 70 1025.3
20220628045503 21 135 8.0 8.0 0.00 0.10 0.00 70 1024.9
20220628045007 21 135 6.4 11.3 0.00 0.10 0.00 69 1024.9
20220628044507 21 135 6.4 11.3 0.00 0.13 0.00 68 1024.9
20220628044004 21 135 6.4 8.0 0.00 0.15 0.00 68 1024.9
20220628043503 21 135 6.4 11.3 0.00 0.15 0.00 68 1024.9
20220628043007 21 135 8.0 9.7 0.00 0.18 0.00 67 1024.9
20220628042506 21 135 6.4 9.7 0.00 0.20 0.00 67 1024.6
20220628042005 21 135 8.0 11.3 0.00 0.23 0.00 66 1024.6
20220628041503 21 135 8.0 9.7 0.00 0.25 0.00 66 1024.6
20220628041008 22 135 0.0 9.7 0.00 0.28 0.00 65 1024.6
20220628040506 21 135 0.0 14.5 0.00 0.30 0.00 64 1024.6
20220628040004 22 135 6.4 12.9 0.00 0.33 0.00 63 1024.6
20220628035508 22 135 6.4 9.7 0.00 0.36 0.00 62 1024.6
20220628035006 22 135 8.0 8.0 0.00 0.38 0.00 60 1024.6
20220628034505 22 135 11.3 12.9 0.00 0.43 0.00 59 1024.3
20220628034004 22 135 14.5 17.7 0.00 0.46 0.00 57 1024.3
20220628033506 22 135 8.0 24.1 0.00 0.48 0.00 56 1023.9
20220628033005 22 135 4.8 9.7 0.00 0.53 0.00 55 1023.9
20220628032503 22 135 4.8 6.4 0.00 0.58 0.00 55 1023.9
20220628032008 23 135 6.4 8.0 0.00 0.66 0.00 53 1023.9
20220628031507 23 135 6.4 8.0 0.00 0.69 0.00 53 1023.9
20220628031005 23 135 4.8 9.7 0.00 0.74 0.00 52 1023.9